map of EDL home
Great Circle Mapper logo
EDL - Airport
Location
City:  Eldoret, Kenya
Name:Eldoret International Airport
ICAO / IATA:HKEL / EDL

Details
Type:Airport (Aerodrome, Airfield)
Use:International (customs port of entry)
Latitude:024'16"N (0.404458)
Longitude:3514'20"E (35.238928)
Datum:WGS 1984
Elevation:6941 ft (2116 m)
Runways:1
Longest:11483 × 148 ft (3500 × 45 m), paved

Time
Time Zone:UTC+3
Local Time:

Weather
METAR:HKEL 191300Z 04012KT 9999 FEW024CB BKN300 24/08
TAF:HKEL 191030Z 1912/2012 08010KT 9999 FEW024CB SCT025
TEMPO 1912/1918 VRB10KT -TSRA FEW023CB BKN024 BKN080
BECMG 1920/1923 12010KT FEW018
TEMPO 2000/2006 VRB05KT CAVOK
BECMG 2008/2011 08010KT 9999 FEW024CB SCT025

Related Locations
Nearby:
Farthest:NHV: 11779 mi / 18956 km
Nuku Hiva, Marquesas Islands, PF

Find:

   beyond  
but within

Other Information
Maps:
NOTAMs:
Links:
Sources:

  
flag of Kenya   

Sectional Chart

Flight Planning
at skyvector.com

Satellite Image

Google Maps Satellite View

 

Copyright © 2004-2014 Karl L. Swartz. All rights reserved.
The Great Circle Mapper name and logo are trademarks of the Great Circle Mapper.
All other trademarks mentioned herein belong to their respective owners.
Please see credits for attibutions and further copyright information.

  Follow gcmap on Facebook Follow gcmap on Twitter

hCard Microformat

Geo Microformat